Location: Eurasberg
(48.3353°N, 11.0839°E)
Time: 14:20:00
(UTC+00:00)

Timation 1 Rocket - Pass Details

Date: 23 April 2026
Orbit: 895 x 908 km, 70.0° (Epoch: 14 May)

Event Time Altitude Azimuth Distance (km) Brightness Sun altitude
Exits shadow 01:25:57 14° 281° (WNW) 2,337 6.3 -22.5°
Maximum altitude 01:29:25 22° 322° (NW) 1,903 6.2 -22.2°
Drops below altitude 10° 01:33:57 10° 12° (NNE) 2,604 7.6 -21.7°
Sets 01:37:07 0° 27° (NNE) 3,548 8.9 -21.4°
